OBJECT T (43775 NORAD) Tracking and Keplerian Element Data

This shows tracking and keplerian element data for the satellite.

Feedback or suggestion? Click here.




ElementValue
Catalog43775
NameOBJECT T
Epoch Orbit662
Epoch Day17.19827569
Epoch Year2019
RAAN90.9151
Inclination97.7644
Eccentricity0.0016127
Argument of Perigee112.4511
Mean Anonmoly247.842
Mean Motion14.94853949
Decay Rate1.89E-06
L11 43775U 18099T 19017.19827569 .00000189 00000-0 22590-4 0 9998
L22 43775 97.7644 90.9151 0016127 112.4511 247.8420 14.94853949 6629

Live tracking and technical data element details for OBJECT T (NORAD 43775). OBJECT T can be tracked NOW for your location showing map with azimuth and elevation plus other details from your city location.

Track the satellite on the map from your city or location and see movement details for azimuth, elevation, latitude, longitude, range, height, and movement on the map or in text.







IsCatalogInMostPopularTable: catalog: 43775, numindb: 19
Update: records affected: 1



GetName: 43775 OBJECT T

Hit Count: updated at: Fri, 18 Jan 2019 22:30:23 GMT